Theta_e
313 313 313 312 311 311 309 308 306 308 305 303 307 301 303 302 302 302 301 302 300 299 299 299 300 302 305 308 308 307 307 306 305 303 302 303 303 303 302 301 301 301
311 310 309 310 307 306 307 308 306 306 302 301 301 300 298 301 299 300 300 299 298 298 297 297 297 300 303 303 300 301 301 301 300 300 299 297 298 299 299 299 298 297
308 308 308 308 308 306 305 304 305 303 302 299 298 299 298 297 297 297 298 298 298 297 296 296 296 296 298 297 297 297 296 296 294 294 294 293 293 293 292 293 293 293
307 308 308 307 306 304 303 303 301 300 299 299 298 298 298 296 297 296 296 295 296 294 293 294 294 294 294 294 294 293 293 292 291 289 289 288 288 289 288 287 287 287
306 305 305 305 304 303 303 303 300 300 300 298 296 295 296 296 296 295 294 293 293 291 292 292 292 291 291 291 291 290 289 288 287 287 287 287 286 287 286 285 284 285
303 304 304 304 303 303 303 302 299 299 297 296 296 295 295 294 293 292 291 290 289 290 289 289 289 288 289 288 288 287 286 287 285 286 286 286 285 284 285 284 284 284
302 302 302 303 303 303 301 299 298 297 297 295 292 292 291 291 291 291 290 290 289 289 289 288 288 286 285 287 287 286 286 286 284 285 287 284 284 284 283 284 284 284
299 299 300 301 301 300 299 297 295 294 292 292 292 288 291 291 290 289 289 289 290 289 288 287 288 288 285 286 287 286 285 285 283 284 286 284 284 285 284 284 283 284
298 298 298 298 297 296 295 294 293 291 291 292 290 288 288 290 289 289 289 289 288 287 288 287 287 286 285 286 286 286 286 285 285 285 285 285 284 284 283 282 283 282
296 295 295 295 295 293 292 291 290 289 289 290 289 288 288 287 288 288 288 288 287 287 287 287 286 286 285 286 286 286 286 286 285 285 285 284 284 283 283 282 282 282
294 294 294 293 292 291 290 289 288 288 289 289 288 288 287 287 286 287 287 287 288 287 287 286 286 286 286 286 285 285 285 285 285 284 284 283 283 283 283 282 282 281
292 292 292 291 290 289 288 288 288 288 288 287 288 288 287 287 287 286 287 286 286 286 286 286 285 285 285 285 285 285 285 284 283 283 283 283 282 282 282 282 282 281
291 291 290 289 288 288 287 287 287 287 287 287 287 287 287 286 286 286 285 286 285 285 285 285 285 285 284 284 284 284 284 283 283 282 282 282 281 282 281 281 281 281
289 288 288 288 288 287 287 287 287 286 287 286 286 286 286 286 285 285 284 285 285 284 284 284 284 284 284 284 284 284 283 283 283 282 282 281 281 281 281 281 281 281
287 287 287 287 287 287 286 286 286 285 285 285 285 285 285 284 284 285 284 284 284 284 284 284 284 285 285 285 284 283 283 283 282 282 282 282 281 281 281 281 281 281
286 286 286 286 286 286 286 285 285 284 284 284 284 284 283 283 283 283 284 283 283 283 283 283 284 285 287 289 288 285 284 283 283 282 282 281 281 281 280 280 280 280
286 286 286 286 286 285 284 284 284 284 284 283 283 283 283 283 283 283 282 282 282 282 282 283 284 286 289 290 290 289 285 283 283 282 282 281 280 279 279 279 279 279
286 285 285 285 284 284 284 284 283 283 283 283 282 282 282 282 282 282 282 282 282 281 281 282 284 288 289 289 289 289 286 282 282 282 281 280 279 279 278 278 278 279
285 285 285 284 284 283 283 283 283 283 282 282 282 282 282 282 281 281 281 281 281 280 280 281 282 288 288 288 288 288 286 283 281 281 280 279 278 278 278 278 278 279
285 285 284 284 283 283 282 282 282 282 282 282 281 281 281 281 281 280 280 280 280 280 280 280 282 286 287 287 287 286 285 283 280 280 279 278 278 277 277 278 278 278
284 284 284 283 282 282 282 282 282 281 281 281 281 281 281 281 280 280 279 279 279 279 279 280 282 286 286 287 287 285 284 282 279 279 278 278 278 278 278 278 278 278
284 283 283 282 282 281 281 281 281 281 281 280 280 280 279 279 279 279 279 278 278 279 278 278 281 285 285 285 285 284 283 280 279 278 278 278 278 279 279 279 279 279
284 283 282 282 281 281 281 281 281 280 280 279 279 279 279 279 278 278 278 278 277 278 277 277 278 282 284 284 284 283 281 278 278 277 278 278 278 279 279 279 279 279
283 283 282 281 281 281 281 281 280 279 279 279 279 279 278 278 277 277 277 278 277 277 277 277 277 280 283 283 284 283 280 278 277 277 277 278 278 279 279 279 279 280
282 282 282 281 281 281 281 280 279 279 278 278 278 278 278 278 278 277 277 277 277 277 278 276 275 278 282 283 283 282 280 278 277 276 277 278 277 277 278 278 278 279
281 281 281 281 280 280 279 279 278 277 277 277 277 277 277 277 277 277 276 276 276 275 275 275 275 276 279 282 282 282 281 279 278 276 277 277 277 277 276 277 278 278
Wind_Speed
8 7 9 8 7 7 8 8 6 7 6 5 7 5 6 5 5 6 5 5 5 5 4 4 3 4 5 6 6 6 5 5 4 3 4 5 5 5 5 4 4 3
8 8 7 7 5 5 6 7 8 8 7 6 5 6 4 6 3 5 6 6 5 5 4 4 4 5 5 5 4 6 5 5 5 3 6 5 4 5 4 4 3 3
7 7 8 9 8 8 7 5 6 6 7 6 6 5 6 4 6 4 5 6 6 5 5 5 4 4 5 5 5 6 5 5 5 4 6 5 4 5 3 3 4 4
8 9 9 8 8 9 7 8 6 6 6 7 6 6 7 5 6 6 6 6 7 6 4 5 5 5 5 5 7 6 6 5 3 4 6 4 4 4 4 4 4 4
9 7 6 8 7 8 8 9 8 7 7 7 6 6 7 7 6 6 6 6 6 6 5 5 5 5 5 5 6 6 4 5 3 4 5 5 3 5 4 5 5 5
5 7 8 9 9 9 8 8 8 8 8 7 7 6 6 6 7 7 7 7 5 6 6 5 6 4 5 6 6 5 4 5 3 5 6 6 5 5 4 5 5 5
8 8 8 8 9 8 9 8 7 8 7 7 6 6 7 7 7 7 6 7 6 6 6 6 6 5 4 5 6 6 4 5 5 6 7 5 5 6 5 5 5 4
8 6 8 8 9 8 9 8 7 7 8 7 7 5 6 8 7 6 6 6 7 6 6 6 5 6 4 5 6 6 5 4 6 6 6 5 5 6 6 6 5 5
8 7 7 8 9 7 8 8 7 6 6 8 7 6 5 7 7 7 7 7 7 6 6 6 6 5 4 5 5 6 6 5 5 6 6 6 7 5 4 3 3 3
7 7 8 8 9 7 9 7 7 6 5 8 7 6 7 5 6 7 7 7 8 6 6 6 6 5 5 5 5 5 6 6 6 6 6 6 5 3 2 2 2 3
7 7 8 7 8 7 8 7 7 7 6 8 8 7 7 7 6 6 7 7 8 7 6 6 5 5 6 6 5 5 6 6 6 6 5 4 3 2 2 3 3 3
7 6 8 8 8 8 8 8 8 7 8 7 8 9 7 6 8 6 6 7 6 6 6 6 5 5 6 6 5 5 6 6 5 5 4 3 3 3 3 3 3 3
7 7 8 8 8 8 8 8 8 8 9 9 7 9 9 8 6 7 5 7 7 7 7 7 6 6 6 5 5 5 5 5 4 4 3 3 3 3 3 3 3 3
6 7 7 8 7 8 8 8 8 8 8 7 7 8 8 8 9 9 7 7 7 7 6 7 7 6 5 5 5 5 5 4 4 3 3 3 3 3 3 3 2 2
6 6 6 7 8 8 8 8 7 7 7 7 6 6 6 7 7 9 9 9 7 7 7 6 7 6 4 4 5 4 4 4 3 3 4 4 3 3 2 2 3 3
7 6 6 7 8 8 8 8 7 7 7 7 7 7 7 7 7 7 8 9 9 7 6 6 6 4 7 9 7 5 4 4 4 4 4 3 3 3 3 3 3 3
7 7 7 8 7 8 7 8 8 8 8 8 7 7 8 7 8 9 8 7 8 8 7 6 5 5 10 10 11 9 5 5 5 4 3 3 3 3 3 3 3 3
8 9 9 8 8 9 9 8 8 8 8 9 9 9 7 7 8 8 8 7 7 7 7 6 5 8 11 11 10 11 9 6 5 4 3 2 2 2 2 2 3 3
9 10 10 10 10 9 9 8 9 9 9 9 9 8 8 9 8 8 8 7 8 8 7 6 5 9 11 11 11 12 12 7 5 3 3 3 2 2 2 2 2 3
10 10 11 10 10 9 9 9 9 10 8 7 8 7 8 8 7 9 7 7 7 8 7 6 5 8 11 11 11 12 11 8 4 4 3 2 1 1 1 2 3 2
10 10 10 10 9 9 9 9 9 8 8 7 7 8 9 9 9 8 7 7 7 7 7 7 5 10 11 11 11 12 11 7 4 3 2 1 1 1 1 2 2 2
10 10 9 9 9 9 9 9 8 9 9 7 6 6 5 6 5 6 8 7 6 7 8 8 6 11 11 11 11 11 11 5 3 2 1 1 0 1 1 2 2 2
10 11 11 11 10 10 10 9 10 8 7 6 8 7 8 7 7 5 5 7 7 6 8 8 6 8 10 10 10 12 7 3 2 1 1 2 1 1 0 2 3 2
10 11 12 11 11 11 11 9 7 6 7 7 10 10 8 7 7 7 5 5 7 7 7 8 6 6 10 10 9 11 7 3 2 2 1 2 2 2 2 2 2 6
9 8 9 10 11 10 9 10 9 9 6 5 5 7 8 7 6 8 7 6 6 7 9 8 6 5 9 9 9 9 6 2 2 1 2 3 2 2 3 2 2 4
7 8 8 9 10 8 7 7 6 7 7 7 6 6 7 6 6 7 8 7 6 6 6 5 6 4 5 9 7 6 7 4 2 2 2 3 2 1 1 2 2 3
Wind_Direction
176 176 176 177 178 175 167 165 171 161 163 158 161 168 162 148 146 135 126 114 109 108 112 108 100 95 91 92 99 98 102 104 97 81 86 76 57 62 57 50 53 71
178 173 168 165 157 155 164 164 162 160 161 161 151 140 139 135 139 132 124 110 98 98 100 94 91 103 103 104 104 102 93 91 80 50 84 77 76 81 65 58 63 49
163 163 162 164 163 158 151 142 143 144 143 142 133 130 132 129 122 109 115 115 110 104 98 102 95 93 98 102 97 90 96 91 88 79 86 78 74 81 60 62 54 46
168 167 165 158 150 147 144 134 130 125 124 130 138 137 128 127 120 117 109 112 111 108 105 98 100 94 96 98 99 93 97 85 97 104 92 74 55 73 56 47 38 28
159 151 145 139 138 139 141 138 142 143 139 134 125 126 124 125 119 117 113 106 112 111 102 98 92 99 104 98 103 103 90 92 81 97 94 82 60 68 54 59 39 21
128 137 140 142 144 143 142 141 145 139 134 133 138 132 124 125 126 124 122 119 114 113 105 103 99 96 103 105 95 99 113 97 88 91 84 77 62 57 65 70 60 33
139 138 135 136 135 138 134 137 136 136 136 134 124 127 129 126 122 125 124 123 119 115 116 117 112 105 106 111 105 103 89 101 82 77 81 63 68 49 52 55 42 26
135 133 135 135 132 133 130 133 134 132 132 127 124 132 129 119 121 125 123 122 117 118 116 115 112 116 124 115 115 106 93 85 102 85 78 67 61 45 27 30 29 18
132 134 132 131 126 128 128 129 126 125 132 124 122 119 101 123 130 128 125 121 116 120 121 117 118 117 115 108 106 106 100 81 77 77 71 60 49 39 25 14 21 3
125 126 126 128 125 127 125 124 124 120 119 116 116 115 121 118 124 128 124 124 124 123 121 120 112 106 96 88 95 96 90 85 73 66 63 63 65 44 24 23 4 0
127 131 129 126 123 125 125 124 123 122 119 118 121 123 127 127 120 123 124 128 127 125 118 108 108 105 97 87 78 80 85 80 70 67 65 69 73 64 26 26 11 9
135 134 134 132 131 129 132 131 130 127 123 124 135 133 132 132 132 129 126 119 110 109 106 103 95 88 87 88 82 76 73 73 76 76 81 66 54 38 28 21 10 355
144 141 136 137 137 135 133 132 131 132 135 143 145 140 140 135 126 117 111 113 113 108 103 102 94 86 85 84 80 74 79 84 78 78 69 64 55 42 28 17 3 341
138 135 137 136 135 136 137 134 135 139 142 138 137 137 136 135 133 125 122 113 113 108 107 102 97 91 88 90 89 92 91 85 85 78 65 52 49 34 28 8 348 338
137 138 136 135 138 136 133 135 136 134 131 130 128 127 123 125 127 126 121 111 101 102 101 92 90 92 99 102 97 90 89 84 80 71 62 50 41 32 17 7 351 352
140 137 138 136 137 136 137 138 136 135 134 133 132 129 126 125 120 115 114 118 116 106 98 93 90 89 95 98 98 102 92 91 79 70 63 57 46 27 3 359 351 350
144 147 146 147 143 137 141 141 141 141 138 135 133 133 130 129 123 117 116 117 117 116 105 98 94 91 87 82 82 87 92 83 77 65 63 52 45 35 352 338 335 340
155 153 151 149 148 152 150 148 144 143 143 142 139 135 133 126 118 119 119 120 113 107 103 103 97 87 84 81 81 88 91 84 78 71 62 52 43 18 345 333 321 327
161 159 156 157 161 155 151 150 151 148 148 148 147 143 132 125 127 121 119 117 114 112 108 101 91 86 88 87 89 88 81 77 72 69 57 46 21 0 331 318 313 321
165 163 163 162 157 155 155 157 156 156 152 144 136 135 129 124 121 117 118 115 117 116 111 102 90 87 90 90 90 86 78 75 67 58 54 43 16 320 308 309 313 331
166 166 164 161 158 158 158 159 155 146 145 148 144 142 140 137 135 125 119 119 121 119 113 101 87 86 88 88 90 86 78 74 61 60 63 46 332 294 282 296 306 318
166 164 161 159 159 159 159 157 154 154 148 145 128 114 105 110 102 111 123 123 124 120 112 98 81 82 87 88 90 89 84 74 86 81 134 144 275 204 311 302 295 299
171 166 165 165 164 162 162 159 155 148 142 144 131 133 131 125 127 119 124 122 117 115 109 100 83 77 90 91 92 98 89 90 115 134 146 148 116 72 272 308 300 309
175 171 168 167 167 168 162 157 149 142 152 159 146 145 136 136 131 117 109 108 111 107 105 106 94 76 93 94 98 105 109 115 141 151 170 152 106 40 18 341 326 358
171 169 169 167 168 166 161 157 159 155 147 135 130 124 126 129 127 118 112 96 95 100 96 96 98 76 92 101 102 109 114 131 138 149 126 79 54 29 357 347 342 344
164 166 168 169 165 151 148 148 135 132 140 131 123 123 126 123 118 116 113 105 98 93 92 96 99 83 89 107 108 101 110 125 143 129 89 61 26 356 320 340 337 342